Location: Bonny Doon Airfield
(37.0704°N, 122.1252°W)
Time: 03:12:41
(UTC-07:00)

Vanguard 1 - Visible Passes

Search period start: 22 October 2017 00:00
Search period end: 01 November 2017 00:00
Orbit: 650 x 3834 km, 34.3° (Epoch: 21 October)

Date Brightness Start Highest point End Pass type
(mag) Time Alt. Az. Time Alt. Az. Time Alt. Az.
22 Oct 13.3 01:22:45 31° E 01:22:45 31° E 01:32:07 10° E visible
22 Oct 12.3 03:35:29 79° SW 03:36:44 82° S 04:00:36 10° E visible
22 Oct 13.0 05:48:11 23° W 06:03:40 66° SSW 06:26:07 10° SE visible
23 Oct 13.2 01:42:38 37° E 01:42:38 37° E 01:54:04 10° E visible
23 Oct 12.3 03:55:21 71° WSW 03:58:26 80° S 04:22:19 10° ESE visible
23 Oct 13.1 06:08:05 18° W 06:25:04 58° SSW 06:46:54 10° SE visible
24 Oct 13.0 02:02:33 44° E 02:02:33 44° E 02:16:00 10° E visible
24 Oct 12.3 04:15:16 61° WSW 04:20:06 76° SSW 04:43:53 10° ESE visible
24 Oct 13.2 06:28:00 13° W 06:46:21 50° SW 07:07:22 10° SE visible
25 Oct 12.8 02:22:30 52° E 02:22:30 52° E 02:37:56 10° E visible
25 Oct 12.4 04:35:14 52° W 04:41:41 71° SSW 05:05:15 10° ESE visible
25 Oct 13.4 06:48:26 10° W 07:07:29 42° SW 07:27:28 10° SSE visible
26 Oct 13.9 00:29:46 12° E 00:29:46 12° E 00:31:00 10° E visible
26 Oct 12.6 02:42:30 59° ESE 02:42:30 59° ESE 02:59:49 10° E visible
26 Oct 12.6 04:55:14 44° W 05:03:13 64° SSW 05:26:23 10° SE visible
27 Oct 13.8 00:49:48 16° E 00:49:48 16° E 00:52:55 10° E visible
27 Oct 12.5 03:02:32 66° SE 03:02:32 66° SE 03:21:37 10° ESE visible
27 Oct 12.7 05:15:16 36° W 05:24:39 56° SSW 05:47:13 10° SE visible
28 Oct 13.6 01:09:52 21° E 01:09:52 21° E 01:14:51 10° E visible
28 Oct 12.4 03:22:36 70° SSE 03:22:36 70° SSE 03:43:15 10° ESE visible
28 Oct 12.9 05:35:20 29° W 05:45:58 48° SSW 06:07:42 10° SE visible
29 Oct 13.5 01:29:58 25° E 01:29:58 25° E 01:36:47 10° E visible
29 Oct 12.4 03:42:43 68° S 03:42:43 68° S 04:04:41 10° ESE visible
29 Oct 13.0 05:55:27 23° W 06:07:13 40° SW 06:27:46 10° SSE visible
30 Oct 13.3 01:50:06 30° ESE 01:50:06 30° ESE 01:58:41 10° E visible
30 Oct 12.4 04:02:51 61° SSW 04:03:18 61° SSW 04:25:51 10° SE visible
30 Oct 13.2 06:15:35 17° W 06:28:24 33° SW 06:47:20 10° SSE visible
31 Oct 13.2 02:10:15 34° ESE 02:10:15 34° ESE 02:20:29 10° ESE visible
31 Oct 12.5 04:23:00 53° SW 04:24:42 54° SSW 04:46:42 10° SE visible
31 Oct 13.4 06:35:45 11° W 06:49:32 25° SW 07:06:11 10° S visible
